GALAXY 17 (G-17)

Last updated on Sun Jun 21 2026 00:03:04 GMT+0000 (Coordinated Universal Time)

1 31307U 07016B 26171.37517041 -.00000211 00000+0 00000+0 0 9996 2 31307 2.9813 79.8634 0004780 19.9713 218.7990 1.00271439 69834
UTC large
Height (km)
Speed (km/s)
/
Latitude / Longitude
Inclination (degrees)
Orbital Period (minutes)
Azimuth
Elevation
Range (km)
Doppler Factor

Next 0 passes for location: London (51.5072 / 0.1276)

No passes found over London.
GALAXY 17 (G-17)